Kezdőlap
METAR-TAF:

METAR-TAF

Repülőterek :

Willmar Municipal Airport (John L. Rice Field)

Willmar, Minnesota, Amerikai Egyesült Államok

földrajzi szélesség: 45-07N, földrajzi hosszúság: 095-05W, magasság: 344 m

Jelenlegi meteorológiai megfigyelések

A jelentés 28 perccel ezelõtt készült, 02:55 UTC
Nyugat-délnyugati szél 15 kt
Hőmérséklet -1°C
Páratartalom 69%
Légköri nyomás 1009 hPa
Látótávolság: 16.1 km

METAR: KBDH 270255Z 25015KT 10SM M01/M06 A2981 RMK AO2

Idő: 21:23 (03:23 UTC)


TAF: hiányzik

Meteorológiai megfigyelések és előrejelzések több, mint 4000 repülőtéren (METAR és TAF jelentéseket).

A térképen piros és sárga pontok jelzik az elérhető meteorológiai állomásokat.

Mozgassa az egeret a pont fölött, hogy megjelenjen az állomás neve.

Azután kattintson az időjárási megfigyelések és előrejelzések megtekintéséhez.

A térkép megváltoztatása: kattintson a fekete keresztel jelölt zöld gombra ráközelítéshez, a vonallal jelölt zöld gombra távolításhoz, vagy a zöld nyilakra a szomszédos térképek eléréséhez.


METAR-TAF: